Weather History for Wolf Point, MT

Change the Weather History Date:

Wednesday, July 24, 2013

  Actual Average Record
Temperature  
Mean Temperature 69 °F -  
Max Temperature 86 °F 88 °F 111 °F (2007)
Min Temperature 51 °F 56 °F 45 °F (2004)
Degree Days  
Heating Degree Days 0    
Cooling Degree Days 4    
Growing Degree Days 18 (Base 50)    
Moisture  
Dew Point 58 °F    
Average Humidity 77    
Maximum Humidity 100    
Minimum Humidity 34    
Precipitation  
Precipitation 0.07 in 0.07 in 0.59 in (2008)
Month to date precipitation 0.92 1.55  
Year to date precipitation 9.64 7.96  
Sea Level Pressure  
Sea Level Pressure 30.05 in    
Wind  
Wind Speed 2 mph (ENE)    
Max Wind Speed 13 mph    
Max Gust Speed 17 mph    
Visibility 9 miles    
Events Rain , Thunderstorm    
T = Trace of Precipitation, MM = Missing Value Source: NWS Daily Summary

Daily Weather History Graph

Daily Weather History Graph

Search for Another Location

Airport:

Trip Planner

Search our weather history database for the weather conditions in past years. The results will help you decide how hot, cold, wet, or windy it might be!

Date:

Astronomy

Jul. 24, 2013 Rise Set
Actual Time 5:28 AM MDT 8:48 PM MDT
Civil Twilight 4:50 AM MDT 9:26 PM MDT
Nautical Twilight 4:00 AM MDT 10:15 PM MDT
Astronomical Twilight 2:55 AM MDT 11:19 PM MDT
Moon 9:37 PM MDT (7/24) 8:07 AM MDT (7/24)
Length of Visible Light 16h 35m
Length of Day
15h 19m
Waning Gibbous, 94% of the Moon is Illuminated
Jul 24
Waning Gibbous
Jul 29
Last Quarter
Aug 6
New
Aug 14
First Quarter
Aug 20
Full

Hourly Weather History & Observations

Time (MDT) Temp. Heat Index Dew Point Humidity Pressure Visibility Wind Dir Wind Speed Gust Speed Precip Events Conditions
12:53 AM 59.0 °F - 55.9 °F 90% 30.09 in 10.0 mi Calm Calm - N/A   Clear
1:53 AM 55.9 °F - 54.0 °F 93% 30.10 in 10.0 mi West 3.5 mph - N/A   Clear
2:53 AM 55.9 °F - 54.0 °F 93% 30.10 in 10.0 mi Calm Calm - N/A   Clear
3:53 AM 55.0 °F - 53.1 °F 93% 30.09 in 10.0 mi Calm Calm - N/A   Clear
4:10 AM 51.8 °F - 50.0 °F 94% 30.10 in 1.8 mi Calm Calm - N/A   Clear
4:20 AM 53.6 °F - 51.8 °F 94% 30.10 in 3.0 mi Calm Calm - N/A   Clear
4:53 AM 54.0 °F - 52.0 °F 93% 30.10 in 10.0 mi Calm Calm - N/A   Clear
5:48 AM 51.8 °F - 51.8 °F 100% 30.11 in 10.0 mi Calm Calm - N/A   Partly Cloudy
5:53 AM 52.0 °F - 51.1 °F 97% 30.10 in 10.0 mi Calm Calm - N/A   Scattered Clouds
6:04 AM 51.8 °F - 50.0 °F 94% 30.11 in 4.0 mi Calm Calm - N/A   Mostly Cloudy
6:41 AM 55.4 °F - 53.6 °F 94% 30.11 in 10.0 mi Calm Calm - N/A   Scattered Clouds
6:53 AM 57.9 °F - 55.0 °F 90% 30.10 in 10.0 mi Calm Calm - N/A   Clear
7:53 AM 63.0 °F - 57.9 °F 84% 30.10 in 10.0 mi Calm Calm - N/A   Clear
8:53 AM 69.1 °F - 59.0 °F 70% 30.09 in 10.0 mi Calm Calm - N/A   Clear
9:53 AM 75.0 °F - 59.0 °F 57% 30.08 in 10.0 mi Calm Calm - N/A   Clear
10:53 AM 78.1 °F - 55.9 °F 46% 30.07 in 10.0 mi Variable 4.6 mph - N/A   Clear
11:53 AM 80.1 °F 80.4 °F 57.0 °F 45% 30.05 in 10.0 mi SSE 4.6 mph - N/A   Clear
12:53 PM 82.0 °F 81.7 °F 57.0 °F 42% 30.04 in 10.0 mi Variable 3.5 mph - N/A   Scattered Clouds
1:53 PM 82.9 °F 82.1 °F 55.9 °F 39% 30.03 in 10.0 mi Calm Calm - N/A   Mostly Cloudy
2:53 PM 84.9 °F 83.3 °F 54.0 °F 34% 29.99 in 10.0 mi Variable 4.6 mph - N/A   Clear
3:49 PM 78.8 °F - 59.0 °F 51% 30.01 in 10.0 mi East 12.7 mph - 0.01 in Rain , Thunderstorm Light Thunderstorms and Rain
3:53 PM 77.0 °F - 60.1 °F 56% 30.01 in 10.0 mi ENE 10.4 mph - 0.01 in Rain , Thunderstorm Light Thunderstorms and Rain
4:53 PM 71.1 °F - 62.1 °F 73% 30.00 in 10.0 mi Calm Calm - 0.04 in Thunderstorm Scattered Clouds
5:11 PM 71.6 °F - 64.4 °F 78% 30.01 in 10.0 mi WSW 9.2 mph - N/A   Clear
5:53 PM 71.1 °F - 64.0 °F 78% 30.00 in 10.0 mi Calm Calm - N/A   Clear
6:04 PM 71.6 °F - 64.4 °F 78% 30.00 in 10.0 mi Calm Calm - N/A Thunderstorm Clear
6:19 PM 71.6 °F - 64.4 °F 78% 29.98 in 10.0 mi East 8.1 mph - N/A Thunderstorm Thunderstorm
6:53 PM 68.0 °F - 63.0 °F 84% 30.00 in 10.0 mi WSW 8.1 mph 17.3 mph 0.01 in Thunderstorm Mostly Cloudy
7:09 PM 69.8 °F - 62.6 °F 78% 30.00 in 10.0 mi Calm Calm - N/A   Scattered Clouds
7:53 PM 71.1 °F - 62.1 °F 73% 29.99 in 10.0 mi NE 6.9 mph - N/A   Clear
8:53 PM 69.1 °F - 61.0 °F 75% 30.00 in 10.0 mi East 3.5 mph - N/A   Clear
9:22 PM 68.0 °F - 62.6 °F 83% 29.99 in 10.0 mi East 11.5 mph - 0.01 in Rain , Thunderstorm Light Thunderstorms and Rain
9:37 PM 66.2 °F - 62.6 °F 88% 30.00 in 10.0 mi East 10.4 mph - 0.01 in Rain Light Rain
9:53 PM 66.9 °F - 62.1 °F 84% 30.01 in 10.0 mi NNE 10.4 mph - 0.01 in   Scattered Clouds
10:53 PM 66.0 °F - 59.0 °F 78% 30.04 in 10.0 mi NE 5.8 mph - N/A   Mostly Cloudy
11:53 PM 61.0 °F - 57.0 °F 87% 30.03 in 10.0 mi North 5.8 mph - N/A   Clear